This demonstration page uses our WeatherBlox Daily Observations layout. Learn more.

Left ArrowRight Arrow

39.51506, -84.39828

Hourly Observations for March 6, 2015

Temp ( °F °C ) Dew Point ( °F °C ) Humidity (%) Winds ( mph kmh ) Pressure ( in mb ) Visibility ( mi km ) Precip ( " mm )
12:15 am 00:15 Clear 9 -12.6 4 -15.4 80 80 N N/A 30.65 1038 10 16 N/A
12:35 am 00:35 Clear 9 -12.6 5 -15.2 81 81 N N/A 30.65 1038 N/A N/A
12:55 am 00:55 Clear 9 -12.6 4 -15.3 80 80 N N/A 30.65 1038 10 16 N/A
1:15 am 01:15 Clear 9 -12.6 5 -15.2 81 81 N N/A 30.65 1038 10 16 N/A
1:35 am 01:35 Clear N/A N/A N/A undefined N/A N/A 10 16 N/A
1:55 am 01:55 undefined N/A N/A N/A undefined N/A N/A N/A N/A
2:15 am 02:15 undefined N/A N/A N/A undefined N/A N/A N/A N/A
2:35 am 02:35 undefined N/A N/A N/A undefined N/A N/A N/A N/A
2:55 am 02:55 undefined N/A N/A N/A undefined N/A N/A N/A N/A
3:15 am 03:15 undefined N/A N/A N/A undefined N/A N/A N/A N/A
3:35 am 03:35 undefined N/A N/A N/A undefined N/A N/A N/A N/A
3:55 am 03:55 undefined N/A N/A N/A undefined N/A N/A N/A N/A
4:15 am 04:15 undefined N/A N/A N/A undefined N/A N/A N/A N/A
4:35 am 04:35 undefined N/A N/A N/A undefined N/A N/A N/A N/A
4:55 am 04:55 undefined N/A N/A N/A undefined N/A N/A N/A N/A
5:15 am 05:15 undefined N/A N/A N/A undefined N/A N/A N/A N/A
5:35 am 05:35 undefined N/A N/A N/A undefined N/A N/A N/A N/A
5:55 am 05:55 undefined N/A N/A N/A undefined N/A N/A N/A N/A
6:15 am 06:15 undefined N/A N/A N/A undefined N/A N/A N/A N/A
6:35 am 06:35 undefined N/A N/A N/A undefined N/A N/A N/A N/A
6:55 am 06:55 undefined N/A N/A N/A undefined N/A N/A N/A N/A
7:15 am 07:15 undefined N/A N/A N/A undefined N/A N/A N/A N/A
7:35 am 07:35 undefined N/A N/A N/A undefined N/A N/A N/A N/A
7:55 am 07:55 undefined N/A N/A N/A undefined N/A N/A N/A N/A
8:15 am 08:15 undefined N/A N/A N/A undefined N/A N/A N/A N/A
8:35 am 08:35 undefined N/A N/A N/A undefined N/A N/A N/A N/A
8:55 am 08:55 undefined N/A N/A N/A undefined N/A N/A N/A N/A
9:15 am 09:15 Hazy 12 -11.2 7 -14 80 80 N N/A 30.65 1038 5 8 N/A
9:35 am 09:35 Sunny 14 -9.8 10 -12.5 81 81 N N/A 30.65 1038 7 11 N/A
9:55 am 09:55 Sunny 17 -8.5 12 -11.2 81 81 SSW 5 7 30.65 1038 7 11 N/A
10:15 am 10:15 Sunny 19 -7 13 -10.4 77 77 SW 7 11 30.65 1038 10 16 N/A
10:35 am 10:35 Sunny 20 -6.8 10 -12.1 66 66 SW 7 11 30.62 1037 10 16 N/A
10:55 am 10:55 Sunny 22 -5.7 8 -13.1 56 56 SW 10 17 30.62 1037 10 16 N/A
11:15 am 11:15 Sunny 22 -5.5 5 -14.9 48 48 S 10 17 30.62 1037 10 16 N/A
11:35 am 11:35 Sunny 23 -5 6 -14.2 49 49 SW 9 15 30.62 1037 10 16 N/A
11:55 am 11:55 Sunny 24 -4.2 7 -13.9 47 47 S 8 13 30.62 1037 10 16 N/A
12:15 pm 12:15 Sunny 25 -3.7 7 -14 45 45 SSW 12 19 30.62 1037 10 16 N/A
12:35 pm 12:35 Sunny 27 -2.8 8 -13.3 45 45 S 10 17 30.59 1036 10 16 N/A
12:55 pm 12:55 Sunny 27 -2.8 8 -13.5 44 44 SW 9 15 30.59 1036 10 16 N/A
1:15 pm 13:15 Sunny 27 -2.8 7 -13.9 43 43 SW 10 17 30.56 1035 10 16 N/A
1:35 pm 13:35 Sunny 29 -1.5 8 -13.1 41 41 SW 8 13 30.53 1034 10 16 N/A
1:55 pm 13:55 Sunny 29 -1.5 8 -13.1 41 41 SSW 10 17 30.53 1034 10 16 N/A
2:15 pm 14:15 Sunny 29 -1.5 7 -13.9 39 39 SSW 12 19 30.50 1033 10 16 N/A
2:35 pm 14:35 Sunny 29 -1.5 6 -14.6 36 36 SW 12 19 30.48 1032 10 16 N/A
2:55 pm 14:55 Sunny 29 -1.5 5 -14.9 36 36 SSW 9 15 30.48 1032 10 16 N/A
3:15 pm 15:15 Sunny 29 -1.5 6 -14.2 38 38 SSW 12 19 30.48 1032 10 16 N/A
3:35 pm 15:35 Sunny 29 -1.5 6 -14.4 37 37 SSW 12 19 30.48 1032 10 16 N/A
3:55 pm 15:55 Sunny 29 -1.5 7 -13.7 39 39 S 13 20 30.45 1031 10 16 N/A
4:15 pm 16:15 Sunny 29 -1.5 8 -13.5 40 40 SSW 12 19 30.45 1031 10 16 N/A
4:35 pm 16:35 Sunny 29 -1.5 8 -13.4 40 40 SSW 10 17 30.45 1031 10 16 N/A
4:55 pm 16:55 Sunny 29 -1.5 8 -13.4 40 40 SW 13 20 30.45 1031 10 16 N/A
5:15 pm 17:15 Partly Cloudy 29 -1.5 8 -13.3 41 41 SSW 13 20 30.42 1030 10 16 N/A
5:35 pm 17:35 Partly Cloudy 29 -1.5 9 -12.8 42 42 SW 12 19 30.42 1030 10 16 N/A
5:55 pm 17:55 Partly Cloudy 29 -1.5 9 -13 42 42 SSW 13 20 30.42 1030 10 16 N/A
6:15 pm 18:15 Partly Cloudy 29 -1.5 9 -12.7 43 43 SSW 13 20 30.42 1030 10 16 N/A
6:35 pm 18:35 Clear 29 -1.5 11 -11.7 46 46 SSW 13 20 30.42 1030 10 16 N/A
6:55 pm 18:55 Clear 29 -1.5 10 -12.1 45 45 SSW 10 17 30.42 1030 10 16 N/A
7:15 pm 19:15 Clear 29 -1.5 10 -12.4 44 44 SSW 12 19 30.42 1030 10 16 N/A
7:35 pm 19:35 Clear 29 -1.5 10 -12.2 44 44 SSW 10 17 30.42 1030 10 16 N/A
7:55 pm 19:55 Clear 29 -1.5 10 -12 45 45 S 10 17 30.39 1029 10 16 N/A
8:15 pm 20:15 Clear 29 -1.5 11 -11.5 47 47 SSW 10 17 30.42 1030 10 16 N/A
8:35 pm 20:35 Clear 28 -2.2 10 -12.2 47 47 SSW 10 17 30.42 1030 10 16 N/A
8:55 pm 20:55 Clear 27 -2.8 10 -12.5 48 48 SSW 10 17 30.42 1030 10 16 N/A
9:15 pm 21:15 Clear 27 -2.8 11 -11.6 51 51 SSW 9 15 30.42 1030 10 16 N/A
9:35 pm 21:35 Clear 27 -2.8 12 -11.1 53 53 SSW 10 17 30.42 1030 10 16 N/A
9:55 pm 21:55 Clear 27 -2.8 13 -10.8 54 54 SSW 10 17 30.39 1029 10 16 N/A
10:15 pm 22:15 Clear 27 -2.8 13 -10.7 55 55 SSW 10 17 30.39 1029 10 16 N/A
10:35 pm 22:35 Clear 27 -2.8 13 -10.3 57 57 SSW 9 15 30.39 1029 10 16 N/A
10:55 pm 22:55 Clear 27 -3 14 -10.2 58 58 SSW 7 11 30.39 1029 10 16 N/A
11:15 pm 23:15 Clear 24 -4.2 12 -11 60 60 SSW 8 13 30.39 1029 10 16 N/A
11:35 pm 23:35 Clear 24 -4.2 13 -10.6 61 61 SSW 7 11 30.39 1029 10 16 N/A
11:55 pm 23:55 Clear 24 -4.2 13 -10.5 62 62 SSW 6 9 30.39 1029 10 16 N/A

Powered by AerisWeather